Regional Weather Roundup
Issued by NWS Columbia, SC

Home | Current Version | Previous Version | Text Only | Print | Product List | Glossary On
Versions: 1 2 3 4 5 6 7 8 9 10 11 12 13 14 15 16 17 18 19 20 21 22 23 24 25 26 27 28 29 30 31 32 33 34 35 36 37 38 39 40 41 42 43 44 45 46 47 48 49 50
000
ASUS42 KCAE 220710
RWRCAE
REGIONAL WEATHER ROUNDUP
NATIONAL WEATHER SERVICE COLUMBIA SC
300 AM EDT TUE JUL 22 2014

NOTE: "FAIR" INDICATES FEW OR NO CLOUDS BELOW 12,000 FEET WITH NO
SIGNIFICANT WEATHER AND/OR OBSTRUCTIONS TO VISIBILITY.

NOT ALL STATIONS ARE QUALITY CONTROLLED BY THE NATIONAL
WEATHER SERVICE. USE DATA WITH CAUTION...ESPECIALLY
DEWPOINT OBSERVATIONS.

SCZ001>056-GAZ040-063>065-077-220800-
...UPSTATE SOUTH CAROLINA...

CITY           SKY/WX    TMP DP  RH WIND       PRES   REMARKS
ANDERSON       CLOUDY    73  70  90 E6        30.12S
LIBERTY        FAIR      71  32  24 N3        30.12F
SPARTANBURG    CLOUDY    72  72 100 E5        30.12F FOG
CLEMSON        CLOUDY    75  69  81 CALM      30.13S
GREENVILLE     LGT RAIN  72  70  93 E6        30.14S
GREENWOOD      CLOUDY    73  69  87 CALM      30.12S
GREER          CLOUDY    72  70  93 NE3       30.12S
ROCK HILL      CLOUDY    72  70  93 E3        30.13F
CHESTER        CLOUDY    73  73 100 E3        30.12F
LAURENS        CLOUDY    72 N/A N/A CALM      30.13S


...CENTRAL SOUTH CAROLINA...

CITY           SKY/WX    TMP DP  RH WIND       PRES   REMARKS
COLUMBIA APT   CLOUDY    75  71  87 NE5       30.08F
COLUMBIA OWENS CLOUDY    73  71  93 CALM      30.10F
DARLINGTON     CLOUDY    73  70  88 NE6       30.11F
FLORENCE       CLOUDY    74  72  93 NE5       30.09F
MCENTIRE ANGB  DRIZZLE   73  72  94 CALM      30.09F
ORANGEBURG     LGT RAIN  73  71  93 NE6       30.07F
SUMTER SHAW    CLOUDY    73  73 100 NE6       30.07F
NEWBERRY       CLOUDY    72  72 100 E3        30.14S
AIKEN          RAIN      72  72 100 NE6       30.13S
BARNWELL       DRIZZLE   73  72  94 NE6       30.07F
MANNING        CLOUDY    73 N/A N/A MISG      30.07F
CAMDEN         CLOUDY    72  72 100 E3        30.11F
LANCASTER      CLOUDY    72  72 100 NE3       30.12S
WINNSBORO      DRIZZLE   72  72 100 E6        30.11S


...EASTERN AND COASTAL SOUTH CAROLINA...

CITY           SKY/WX    TMP DP  RH WIND       PRES   REMARKS
MYRTLE BEACH     N/A     73  72  94 N7        30.07F
N MYRTLE BCH   PTCLDY    74  72  93 N3        30.07S
CONWAY         CLOUDY    73  73 100 NE5       30.08F FOG
MARION         CLOUDY    72  72 100 NE3       30.09F FOG
HARTSVILLE     CLOUDY    73  72  94 E5        30.11F
FLORENCE       CLOUDY    74  72  93 NE5       30.09F
DARLINGTON     CLOUDY    73  70  88 NE6       30.11F
CHARLESTON APT MOCLDY    77  74  90 NE5       30.04F
MOUNT PLEASANT FAIR      75  75 100 CALM      30.04F FOG
WALTERBORO     PTSUNNY   73 N/A N/A CALM      30.05F
BEAUFORT       MOCLDY    76  74  93 NE3       30.03F


...EASTERN GEORGIA...

CITY           SKY/WX    TMP DP  RH WIND       PRES   REMARKS
AUGUSTA BUSH F LGT RAIN  73  71  93 N6        30.07F
AUGUSTA DANIEL CLOUDY    73  71  93 NE6       30.09S
THOMSON        CLOUDY    74  74 100 CALM      30.13S
WASHINGTON     CLOUDY    73 N/A N/A CALM      30.10S
CLAXTON        CLOUDY   N/A N/A N/A CALM      30.04F
SYLVANIA       CLOUDY    74  74 100 N3        30.06F FOG
STATESBORO     CLOUDY    73  73 100 N3        30.05S
SAVANNAH       PTCLDY    73  71  93 CALM      30.03F


...SOUTHERN NORTH CAROLINA...

CITY           SKY/WX    TMP DP  RH WIND       PRES   REMARKS
CHARLOTTE      CLOUDY    72  68  87 E6        30.13F
MONROE         CLOUDY    71  69  93 VRB3      30.12F
WADESBORO      CLOUDY    72  71  95 N3        30.12F
ROCKINGHAM       N/A     72  72 100 NE3       30.11F
RUTHERFORDTON  CLOUDY    71  69  95 E5        30.15S
ASHEVILLE      MOCLDY    66  65  96 CALM      30.19S

$$


USA.gov is the U.S. government's official web portal to all federal, state and local government web resources and services.